Back to catalog

STARLINK-32912

AliveCommunicationsVLEO
NORAD 63088·PAYLOAD·🇺🇸 United States

Launched Feb 23, 2025 from Vandenberg Space Force Base

Loading…

Next Passes (next 24 hours)

TLE

FreshSource: CelesTrak SupGP

Epoch: Sep 14, 2026, 15:30 UTC

1 63088C 25037M   26257.64631944 -.00027395  00000+0 -95346-3 0  2575
2 63088  69.9998 236.4683 0002960 270.8107 141.0662 15.29577809    15

Track STARLINK-32912 in real time with AllMySat

Download on the App Store